Location: Newark
(25.6108°S, 54.5803°W)
Time: 15:55:55
(UTC+00:00)

Courier 1B Rocket - Pass Details

Date: 27 October 2020
Orbit: 920 x 1202 km, 28.2° (Epoch: 22 November)

Event Time Altitude Azimuth Distance (km) Brightness Sun altitude
Rises 08:38:48 0° 309° (NW) 3,978 - -3.9°
Exits shadow 08:39:07 - 310° (NW) 3,874 7.5 -3.8°
Reaches altitude 10° 08:41:50 10° 316° (NW) 2,981 7.0 -3.3°
Maximum altitude 08:48:38 42° 24° (NNE) 1,465 6.1 -1.8°
Drops below altitude 10° 08:55:02 10° 93° (E) 2,795 9.3 -0.4°
Sets 08:57:46 0° 100° (E) 3,707 11.3 0.2°
